MEA261 OLBA-LCLK

Flight info

Callsign MEA261
Flight time 0h 27m
Altitude 14000
Route KUKLA M31 DESPO R19 EMILI
Aircraft A21N/M-SDE3FGHIRWY/LB1

Departure

Time 2026-05-04 20:31
Airport Beirut Rafic Hariri International Airport (OLBA)

Arrival

Time 2026-05-04 20:58
Airport Larnaca International Airport (LCLK)
Time Latitude Longitude Altitude Speed Heading
2026-05-04 20:11 33.82300 35.49121 37 ft 0 kts 55°
2026-05-04 20:22 33.82299 35.49120 37 ft 1 kts 56°
2026-05-04 20:23 33.82289 35.49107 36 ft 2 kts 47°
2026-05-04 20:23 33.82280 35.49093 36 ft 2 kts 54°
2026-05-04 20:23 33.82270 35.49079 36 ft 2 kts 51°
2026-05-04 20:23 33.82261 35.49064 35 ft 2 kts 52°
2026-05-04 20:24 33.82251 35.49050 36 ft 2 kts 60°
2026-05-04 20:24 33.82247 35.49033 36 ft 2 kts 90°
2026-05-04 20:24 33.82248 35.49022 36 ft 1 kts 105°
2026-05-04 20:24 33.82250 35.49015 36 ft 0 kts 105°
2026-05-04 20:26 33.82250 35.49016 36 ft 1 kts 104°
2026-05-04 20:26 33.82241 35.49058 35 ft 7 kts 102°
2026-05-04 20:27 33.82223 35.49144 31 ft 14 kts 105°
2026-05-04 20:27 33.82193 35.49278 29 ft 18 kts 104°
2026-05-04 20:27 33.82163 35.49392 42 ft 11 kts 116°
2026-05-04 20:27 33.82130 35.49471 51 ft 9 kts 116°
2026-05-04 20:28 33.82128 35.49548 57 ft 10 kts 60°
2026-05-04 20:28 33.82197 35.49619 59 ft 14 kts 36°
2026-05-04 20:28 33.82303 35.49707 56 ft 22 kts 34°
2026-05-04 20:28 33.82438 35.49823 54 ft 23 kts 35°
2026-05-04 20:29 33.82536 35.49906 56 ft 12 kts 35°
2026-05-04 20:29 33.82617 35.49974 57 ft 18 kts 35°
2026-05-04 20:29 33.82734 35.50073 62 ft 19 kts 35°
2026-05-04 20:29 33.82750 35.50169 61 ft 10 kts 124°
2026-05-04 20:30 33.82704 35.50248 60 ft 12 kts 125°
2026-05-04 20:30 33.82645 35.50271 59 ft 9 kts 210°
2026-05-04 20:30 33.82619 35.50251 58 ft 16 kts 213°
2026-05-04 20:30 33.82277 35.49984 54 ft 98 kts 211°
2026-05-04 20:31 33.81523 35.49404 78 ft 155 kts 212°
2026-05-04 20:31 33.80594 35.48668 659 ft 160 kts 219°
2026-05-04 20:31 33.79820 35.47813 1525 ft 153 kts 228°
2026-05-04 20:31 33.79139 35.46848 2227 ft 156 kts 230°
2026-05-04 20:32 33.78522 35.45718 2683 ft 174 kts 253°
2026-05-04 20:32 33.78750 35.44220 3098 ft 201 kts 297°
2026-05-04 20:32 33.79679 35.42869 3570 ft 224 kts 308°
2026-05-04 20:32 33.80783 35.41436 4053 ft 244 kts 308°
2026-05-04 20:33 33.81958 35.39851 4697 ft 258 kts 307°
2026-05-04 20:33 33.83123 35.38209 5588 ft 260 kts 307°
2026-05-04 20:33 33.84273 35.36538 6499 ft 262 kts 306°
2026-05-04 20:33 33.85417 35.34844 7380 ft 265 kts 305°
2026-05-04 20:34 33.86559 35.33129 8249 ft 267 kts 305°
2026-05-04 20:34 33.87710 35.31385 9081 ft 268 kts 304°
2026-05-04 20:34 33.88870 35.29617 9915 ft 270 kts 304°
2026-05-04 20:34 33.90031 35.27841 10633 ft 276 kts 304°
2026-05-04 20:35 33.91234 35.25991 11030 ft 292 kts 304°
2026-05-04 20:35 33.92527 35.24000 11372 ft 310 kts 304°
2026-05-04 20:35 33.93899 35.21886 11675 ft 328 kts 304°
2026-05-04 20:35 33.95352 35.19650 11990 ft 345 kts 305°
2026-05-04 20:36 33.96861 35.17329 12281 ft 360 kts 305°
2026-05-04 20:36 33.98430 35.14915 12736 ft 369 kts 305°
2026-05-04 20:36 34.00017 35.12472 13385 ft 372 kts 305°
2026-05-04 20:36 34.01609 35.10019 14013 ft 376 kts 305°
2026-05-04 20:37 34.03224 35.07528 14639 ft 378 kts 305°
2026-05-04 20:37 34.04839 35.05036 15239 ft 381 kts 305°
2026-05-04 20:37 34.06485 35.02488 15760 ft 384 kts 305°
2026-05-04 20:37 34.08123 34.99954 15993 ft 386 kts 305°
2026-05-04 20:38 34.09770 34.97407 15993 ft 386 kts 306°
2026-05-04 20:38 34.11436 34.94825 15998 ft 385 kts 306°
2026-05-04 20:38 34.13098 34.92250 15995 ft 385 kts 306°
2026-05-04 20:38 34.14725 34.89724 15990 ft 384 kts 306°
2026-05-04 20:39 34.16359 34.87183 15991 ft 384 kts 306°
2026-05-04 20:39 34.18009 34.84617 15993 ft 385 kts 306°
2026-05-04 20:39 34.19640 34.82080 15987 ft 384 kts 306°
2026-05-04 20:39 34.21285 34.79521 15983 ft 384 kts 306°
2026-05-04 20:40 34.22918 34.76977 15987 ft 384 kts 305°
2026-05-04 20:40 34.24523 34.74417 15986 ft 383 kts 303°
2026-05-04 20:40 34.26052 34.71758 15982 ft 383 kts 302°
2026-05-04 20:40 34.27544 34.69111 15975 ft 383 kts 302°
2026-05-04 20:41 34.29035 34.66455 15967 ft 382 kts 302°
2026-05-04 20:41 34.30535 34.63777 15962 ft 382 kts 302°
2026-05-04 20:41 34.32014 34.61140 15958 ft 382 kts 302°
2026-05-04 20:41 34.33515 34.58461 15957 ft 382 kts 302°
2026-05-04 20:42 34.35001 34.55806 15962 ft 382 kts 302°
2026-05-04 20:42 34.36482 34.53157 15961 ft 381 kts 302°
2026-05-04 20:42 34.37961 34.50513 15960 ft 381 kts 302°
2026-05-04 20:42 34.39438 34.47870 15963 ft 382 kts 302°
2026-05-04 20:43 34.40926 34.45207 15845 ft 377 kts 302°
2026-05-04 20:43 34.42388 34.42588 15244 ft 374 kts 302°
2026-05-04 20:43 34.43826 34.40010 14516 ft 374 kts 302°
2026-05-04 20:43 34.45276 34.37415 13839 ft 372 kts 302°
2026-05-04 20:44 34.46740 34.34834 13217 ft 368 kts 302°
2026-05-04 20:44 34.48194 34.32276 12616 ft 365 kts 302°
2026-05-04 20:44 34.49610 34.29779 12009 ft 362 kts 302°
2026-05-04 20:44 34.51041 34.27255 11412 ft 359 kts 302°
2026-05-04 20:45 34.52441 34.24780 10804 ft 356 kts 302°
2026-05-04 20:45 34.53822 34.22341 10402 ft 347 kts 302°
2026-05-04 20:45 34.55172 34.19955 10170 ft 334 kts 302°
2026-05-04 20:45 34.56448 34.17696 9953 ft 321 kts 302°
2026-05-04 20:46 34.57683 34.15507 9630 ft 302 kts 302°
2026-05-04 20:46 34.58817 34.13496 9439 ft 277 kts 302°
2026-05-04 20:46 34.59872 34.11622 9237 ft 268 kts 302°
2026-05-04 20:46 34.60920 34.09755 8986 ft 266 kts 302°
2026-05-04 20:47 34.61948 34.07921 8742 ft 265 kts 302°
2026-05-04 20:47 34.63018 34.06084 8487 ft 265 kts 308°
2026-05-04 20:47 34.64456 34.04698 8236 ft 268 kts 326°
2026-05-04 20:47 34.66103 34.03619 7967 ft 266 kts 330°
2026-05-04 20:48 34.67750 34.02607 7576 ft 266 kts 330°
2026-05-04 20:48 34.69405 34.01596 7162 ft 266 kts 330°
2026-05-04 20:48 34.71054 34.00592 6769 ft 265 kts 330°
2026-05-04 20:48 34.72689 33.99588 6384 ft 264 kts 330°
2026-05-04 20:49 34.74313 33.98572 6005 ft 262 kts 328°
2026-05-04 20:49 34.75874 33.97446 5646 ft 260 kts 326°
2026-05-04 20:49 34.77418 33.96271 5279 ft 258 kts 325°
2026-05-04 20:49 34.78905 33.95124 4951 ft 255 kts 325°
2026-05-04 20:50 34.80402 33.93975 4774 ft 254 kts 325°
2026-05-04 20:50 34.81914 33.92811 4600 ft 254 kts 325°
2026-05-04 20:50 34.83396 33.91673 4431 ft 253 kts 325°
2026-05-04 20:50 34.84875 33.90538 4256 ft 252 kts 326°
2026-05-04 20:51 34.86362 33.89393 4079 ft 251 kts 326°
2026-05-04 20:51 34.87827 33.88259 4004 ft 242 kts 325°
2026-05-04 20:51 34.89211 33.87197 3980 ft 227 kts 325°
2026-05-04 20:51 34.90532 33.86193 3713 ft 224 kts 325°
2026-05-04 20:52 34.91701 33.84963 3400 ft 220 kts 307°
2026-05-04 20:52 34.92557 33.83457 3109 ft 218 kts 301°
2026-05-04 20:52 34.93358 33.81895 2814 ft 216 kts 300°
2026-05-04 20:52 34.94139 33.80374 2500 ft 207 kts 303°
2026-05-04 20:53 34.95096 33.79099 2190 ft 199 kts 311°
2026-05-04 20:53 34.95877 33.77765 1876 ft 192 kts 294°
2026-05-04 20:53 34.96124 33.77062 1736 ft 191 kts 289°
2026-05-04 20:54 34.96375 33.76166 1578 ft 191 kts 287°
2026-05-04 20:54 34.96563 33.74630 1516 ft 175 kts 261°
2026-05-04 20:54 34.96101 33.73370 1484 ft 153 kts 239°
2026-05-04 20:55 34.95467 33.72401 1495 ft 143 kts 233°
2026-05-04 20:55 34.94807 33.71508 1502 ft 142 kts 231°
2026-05-04 20:55 34.94135 33.70660 1500 ft 138 kts 230°
2026-05-04 20:55 34.94030 33.70530 1493 ft 138 kts 230°
2026-05-04 20:56 34.93980 33.70467 1488 ft 138 kts 230°
2026-05-04 20:56 34.93300 33.69636 1326 ft 137 kts 229°
2026-05-04 20:56 34.92626 33.68815 1159 ft 137 kts 229°
2026-05-04 20:56 34.91947 33.67986 992 ft 136 kts 228°
2026-05-04 20:57 34.91280 33.67172 826 ft 136 kts 228°
2026-05-04 20:57 34.90612 33.66356 660 ft 136 kts 228°
2026-05-04 20:57 34.89943 33.65537 492 ft 135 kts 227°
2026-05-04 20:57 34.89281 33.64732 316 ft 135 kts 227°
2026-05-04 20:58 34.88626 33.63925 156 ft 134 kts 227°
2026-05-04 20:58 34.87974 33.63131 13 ft 127 kts 227°
2026-05-04 20:58 34.87455 33.62490 9 ft 86 kts 225°
2026-05-04 20:58 34.87128 33.62089 6 ft 48 kts 226°
2026-05-04 20:59 34.87004 33.61917 6 ft 14 kts 243°
2026-05-04 20:59 34.86985 33.61856 7 ft 4 kts 252°
2026-05-04 20:59 34.86978 33.61829 7 ft 1 kts 255°
2026-05-04 20:59 34.86977 33.61825 7 ft 0 kts 255°
2026-05-04 21:00 34.86976 33.61821 7 ft 0 kts 255°